Location: Antiges
(45.4000°N, 2.2833°E)
Time: 12:12:02
(UTC+00:00)

Daily predictions for brighter satellites

Satellite Brightness Start Highest point End
(mag) Time Altitude Azimuth Time Altitude Azimuth Time Altitude Azimuth
COSMOS 2406 3.6 19:47:25 10° SSW 19:53:05 74° WNW 19:58:50 10° NNE
BREEZE-M DEB (TANK) 3.4 19:50:24 10° SSW 19:53:25 40° SE 20:01:40 10° ENE
Cosmos 2322 Rocket 3.9 19:50:24 10° N 19:54:25 19° NE 19:58:25 10° E
Meteor 2-13 Rocket 4.5 19:48:28 10° S 19:54:35 83° E 20:00:42 10° N
IRS-1A Rocket 4.3 19:50:17 10° SSE 19:55:47 76° ENE 20:01:18 10° NNW
Cosmos 1689 Rocket 3.3 19:54:13 10° N 19:56:51 43° WNW 19:59:29 10° SSW
BREEZE-M DEB (TANK) 3.4 19:56:34 10° WNW 19:59:25 70° NNE 20:07:11 10° ESE
MOS 1 4.3 19:54:25 10° SSE 20:00:05 84° ENE 20:05:46 10° NNW
Cosmos 1538 Rocket 4.4 19:55:53 10° S 20:00:45 41° ESE 20:05:36 10° NE
Resurs 01 Rocket 1.9 19:59:27 10° SSE 20:03:46 52° ENE 20:08:07 10° N
Cosmos 2151 3.9 20:01:49 10° SSE 20:05:28 29° E 20:09:10 10° NNE
ERS-2 2.2 20:02:40 10° NNE 20:06:16 56° ESE 20:09:51 10° S
Cosmos 44 Rocket 4.0 20:01:18 10° SW 20:06:28 64° NW 20:11:41 10° NNE
Cosmos 2098 Rocket 2.8 20:03:50 10° SSE 20:06:45 41° E 20:10:08 10° NNE
Gbstr 26 Del rocket 3.6 20:04:51 10° NW 20:08:24 41° NNE 20:12:08 10° E
USA 186 4.3 20:10:29 10° SW 20:12:43 18° W 20:14:50 10° NW
Ariane Rocket 3.2 20:13:05 10° S 20:18:09 75° WSW 20:23:15 10° NNW
SL-16 R/B 3.1 20:18:12 10° NNW 20:23:26 36° NE 20:28:03 13° ESE
Cosmos 1782 4.2 20:24:20 10° NNE 20:27:40 24° ENE 20:30:03 15° ESE
Cosmos 371 Rocket 3.3 20:23:31 10° NNW 20:28:21 85° ENE 20:32:51 12° SSE
ARIANE 5 R/B 3.8 20:26:51 14° ESE 20:30:02 29° ENE 20:33:53 10° N
Cosmos 1271 Rocket 3.5 20:30:33 10° N 20:34:18 38° ENE 20:36:55 17° SE
USA 276 2.7 20:32:58 10° WNW 20:36:04 53° NNE 20:38:32 15° E
SPOT 1/Viking Rocket 3.6 20:31:18 12° SSE 20:36:05 67° ENE 20:41:17 10° N
BREEZE-M DEB (TANK) 2.4 20:34:20 10° WNW 20:37:13 89° SSW 20:43:14 14° ESE
Cosmos 1076 Rocket 3.8 20:33:31 10° SSW 20:37:49 73° W 20:42:13 10° N
Cosmos 1697 Rocket 4.4 20:34:45 10° NW 20:39:34 29° WSW 20:44:23 10° SSW
OBJECT-B 3.9 20:39:40 10° WSW 20:40:46 11° W 20:41:52 10° WNW
Cosmos 1151 Rocket 4.1 20:37:29 10° NNE 20:41:19 29° ENE 20:43:40 18° ESE
ATLAS 2AS CENTAUR R/B 3.9 20:36:25 10° WSW 20:44:07 54° NW 20:51:39 10° NNE
Cosmos 923 Rocket 4.3 20:42:01 10° S 20:47:05 47° ESE 20:52:13 10° NNE
ATLAS 3B R/B 3.0 20:43:33 10° NW 20:50:37 69° WSW 20:56:42 16° SSE
Terra 3.0 20:47:56 17° ESE 20:50:38 29° ENE 20:54:43 10° N
SPOT 5 3.3 20:50:48 21° SE 20:53:13 38° ENE 20:57:18 10° N
USA 267 4.2 20:50:25 10° ENE 20:55:26 23° SE 20:59:02 15° SSE
Cosmos 2082 Rocket 3.4 20:50:08 10° SW 20:55:31 45° WNW 21:00:58 10° NNE
Cosmos 1092 Rocket 4.0 20:49:30 10° S 20:55:44 77° E 21:02:03 10° N
Meteor 2-19 Rocket 4.4 20:49:48 10° S 20:55:51 88° E 21:01:57 10° N
Cosmos 1633 4.3 20:53:59 10° SW 20:57:16 33° WNW 21:00:36 10° N
Cosmos 2278 4.5 20:54:15 10° NW 20:59:40 48° WSW 21:04:37 12° S
BREEZE-M DEB (TANK) 3.0 20:59:17 10° W 21:01:47 38° NNW 21:03:12 14° NE
ERS-1 Rocket 3.3 21:00:35 22° SE 21:03:36 53° ENE 21:08:30 10° N
Cosmos 332 Rocket 3.9 21:00:47 10° NNW 21:05:41 73° WSW 21:08:59 21° S
SL-27 R/B 4.2 21:06:23 18° E 21:06:23 18° E 21:08:22 10° NE
Cosmos 2360 Rocket 3.1 21:01:38 10° NNW 21:06:49 36° NE 21:10:08 20° ESE
Cosmos 158 Rocket 4.2 21:01:51 10° SSW 21:06:59 73° WNW 21:12:18 10° NNE
NOSS 2-1 (D) 4.4 21:08:18 20° E 21:08:18 20° E 21:09:50 10° ENE
Cosmos 2026 Rocket 4.0 21:02:22 10° S 21:08:42 78° E 21:15:00 10° N
GP-B 3.0 21:08:55 10° N 21:13:23 85° E 21:16:14 22° S
ISS -3.1 21:11:56 10° WNW 21:15:09 42° SW 21:15:56 35° S
Cosmos 2333 Rocket 3.8 21:12:37 10° N 21:17:08 24° NE 21:20:38 14° E
Spot 2 Rocket 3.5 21:14:48 22° S 21:18:11 81° WSW 21:23:20 10° NNW
Meteor 1-26 Rocket 4.4 21:13:50 10° NNW 21:19:48 77° W 21:23:54 20° S
Cosmos 1371 Rocket 4.4 21:15:29 10° NNW 21:20:47 55° ENE 21:23:22 29° SE
Cosmos 2112 Rocket 4.0 21:17:49 18° S 21:21:42 61° ESE 21:26:54 10° NNE
Cosmos 1812 3.1 21:18:19 10° N 21:22:04 47° ENE 21:23:04 37° ESE
Cosmos 1680 Rocket 3.4 21:17:27 13° S 21:22:11 72° ESE 21:27:26 10° NNE
Cosmos 220 Rocket 4.2 21:19:55 10° NNW 21:24:13 60° ENE 21:25:50 35° SE
CZ-2C R/B 4.3 21:20:47 10° N 21:25:14 55° WNW 21:29:34 10° SSW
Okean 3 Rocket 3.5 21:24:58 28° S 21:27:17 75° E 21:31:49 10° NNE
Cosmos 1980 Rocket 4.1 21:23:28 10° NW 21:27:48 23° WSW 21:32:07 10° SSW
USA 234 4.4 21:24:16 10° E 21:30:15 39° NNE 21:36:15 10° NW
Cosmos 2322 Rocket 2.1 21:33:33 10° NNW 21:39:13 84° WSW 21:41:46 34° SSE
Resurs 01 Rocket 4.1 21:37:42 10° SW 21:40:34 17° W 21:43:27 10° NW
Cosmos 1408 Rocket 3.7 21:40:12 44° SE 21:41:11 54° E 21:45:25 10° NNE
Meteor 2-14 Rocket 4.4 21:43:59 25° S 21:47:47 85° E 21:53:57 10° N
Cosmos 2084 3.2 21:48:52 28° SSW 21:50:55 83° SE 21:55:05 10° NE
Cosmos 1553 Rocket 3.9 21:46:26 10° N 21:52:32 80° W 21:55:36 31° S
CZ-4B DEB 4.2 21:53:29 80° NNE 21:53:29 80° NNE 21:56:31 10° NNW
Gbstr 26 Del rocket 3.0 21:51:32 10° WNW 21:55:14 50° SW 21:55:26 49° SSW
Cosmos 2266 Rocket 4.1 21:53:29 36° SSE 21:55:45 56° E 22:01:49 10° NNE
Cosmos 1862 3.3 21:57:03 51° SSW 21:57:58 80° W 22:01:59 10° N
Cosmos 2219 Rocket 3.1 21:55:33 10° NNW 22:00:46 38° NE 22:02:58 27° E
Cosmos 1624 Rocket 4.0 21:56:05 10° NNW 22:01:18 78° WSW 22:02:57 44° S
NOSS 2-1 (E) 2.9 22:05:22 71° N 22:05:22 71° N 22:08:30 10° NE
Cosmos 2228 Rocket 3.8 22:01:32 10° N 22:05:39 38° ENE 22:06:05 37° E
Cosmos 1515 Rocket 3.5 22:01:25 10° N 22:05:53 87° WSW 22:06:43 58° S
ARIANE 5 R/B 4.1 22:04:24 21° SW 22:06:25 31° W 22:10:23 10° NNW
H-2A R/B 3.3 22:02:22 10° NNE 22:06:36 82° ESE 22:07:15 63° S
SL-16 R/B 3.1 22:02:19 10° NW 22:07:34 39° WSW 22:09:55 27° SSW
NOSS 3-1 (C) 4.2 22:02:25 10° NW 22:09:50 68° NE 22:14:30 30° ESE
COSMOS 2455 3.1 22:09:10 42° SE 22:10:02 45° ESE 22:15:43 10° NE
Cosmos 2333 4.4 22:04:55 10° NNW 22:10:29 61° ENE 22:12:13 42° ESE
Cosmos 2237 4.4 22:06:15 10° NNW 22:11:53 62° WSW 22:13:45 41° S
USA 276 4.1 22:09:19 10° W 22:10:46 21° W 22:10:46 21° W
Cosmos 1420 Rocket 3.9 22:06:57 10° NNW 22:12:19 88° ENE 22:13:43 51° SSE
COSMOS 2428 3.5 22:10:08 10° NNW 22:15:32 41° NE 22:17:35 30° E
Cosmos 1655 Rocket 4.0 22:12:44 36° S 22:15:35 87° E 22:22:01 10° N
Spot 4 4.4 22:21:45 41° E 22:22:32 45° ENE 22:27:07 10° N
S3M 4.1 22:16:28 10° NNW 22:22:50 72° W 22:25:25 38° SSW
USA 229 DEB 4.4 22:16:50 10° NNW 22:23:58 55° NE 22:28:16 26° ESE
USA 229 4.4 22:16:56 10° NNW 22:24:04 54° NE 22:28:23 26° ESE
ATLAS 5 CENTAUR R/B 3.3 22:22:17 10° NNW 22:27:22 39° NE 22:30:39 23° E
Cosmos 1174 4.5 22:24:30 10° NNW 22:26:29 38° NNW 22:26:29 38° NNW
Terra 3.0 22:26:50 28° SW 22:28:17 35° W 22:32:39 10° NNW
COSMOS 2487 4.0 22:31:49 28° NE 22:31:49 28° NE 22:33:37 10° NNE
SPOT 5 4.5 22:30:02 18° WSW 22:31:29 21° W 22:34:49 10° NW
Cosmos 1452 Rocket 3.6 22:26:35 10° NNW 22:31:50 68° ENE 22:32:49 55° ESE
ALOS 2 3.7 22:33:57 32° ENE 22:34:15 32° ENE 22:38:11 10° N
USA 267 3.1 22:32:30 10° NE 22:39:05 80° SE 22:45:39 10° SW
SL-27 R/B 4.1 22:39:50 27° W 22:40:37 30° WNW 22:43:52 10° N
Cosmos 2056 Rocket 4.5 22:36:24 10° NW 22:41:15 36° WSW 22:42:28 32° SW
Meteor 1-27 Rocket 3.8 22:37:15 10° NNW 22:42:54 73° W 22:44:14 52° SSW
NOSS 3-1 (A) 4.2 22:37:07 10° NW 22:44:32 69° NE 22:48:48 33° ESE
Cosmos 1805 Rocket 3.5 22:49:13 88° NE 22:49:13 88° NE 22:53:38 10° N
Cosmos 2360 Rocket 3.0 22:45:39 10° NW 22:50:50 39° WSW 22:51:53 36° SW
IRIDIUM 104 4.4 22:46:13 10° N 22:51:27 72° W 22:52:18 59° SSW
Meteor 1-20 Rocket 4.1 22:54:51 64° SSE 22:55:39 75° E 23:01:20 10° NNE
Cosmos 1110 Rocket 4.2 22:52:36 10° NNW 22:57:54 60° ENE 22:58:40 54° ESE
Cosmos 2333 Rocket 2.2 22:56:18 10° NNW 23:01:54 65° WSW 23:02:38 59° SSW
Cosmos 1331 Rocket 4.2 22:58:07 10° NNW 23:03:19 60° ENE 23:03:57 55° E
Cosmos 1244 Rocket 4.4 23:03:47 58° SSE 23:04:55 72° E 23:11:06 10° NNE
Cosmos 972 Rocket 4.4 23:07:27 46° WSW 23:08:47 60° WNW 23:13:47 10° NNE
COBE Rocket 4.1 23:09:07 52° WSW 23:09:13 52° W 23:13:48 10° NNW
Cosmos 2322 3.9 23:06:30 10° NNW 23:12:07 57° WSW 23:12:44 54° SW
USA 234 3.2 23:10:02 38° ESE 23:12:48 82° NE 23:19:24 10° NW
NOSS 0 Rocket 4.1 23:08:12 10° NNW 23:14:26 67° ENE 23:16:01 49° ESE
Cosmos 2297 Rocket 3.2 23:17:11 32° E 23:17:11 32° E 23:21:44 10° NE
Lacrosse 5 3.4 23:21:59 24° E 23:21:59 24° E 23:24:22 10° ENE
Cosmos 2322 Rocket 4.4 23:20:09 10° WNW 23:22:19 12° W 23:23:35 11° WSW
Cosmos 2237 Rocket 2.8 23:17:04 10° NNW 23:22:37 49° ENE 23:24:02 40° E
Cosmos 2084 Rocket 4.4 23:19:48 10° NNW 23:23:48 41° NE 23:24:07 41° ENE
Cosmos 1500 4.1 23:26:57 45° NNE 23:26:57 45° NNE 23:29:44 10° NNE
Meteor 1-18 Rocket 4.1 23:20:18 10° N 23:26:11 83° E 23:26:57 68° SSE
Cosmos 1470 Rocket 4.4 23:29:03 42° ENE 23:29:03 42° ENE 23:32:27 10° NNE
Cosmos 2227 Rocket 3.3 23:28:53 30° E 23:28:53 30° E 23:33:19 10° NE
Sich 1 3.8 23:28:47 45° WNW 23:28:47 45° WNW 23:32:56 10° N
Meteor 1-25 Rocket 4.5 23:30:16 51° WSW 23:31:18 60° WNW 23:36:50 10° N
Cosmos 2285 Rocket 4.3 23:25:35 10° NNW 23:31:37 50° WSW 23:32:33 46° SW
Cosmos 1633 Rocket 3.2 23:33:06 69° N 23:33:06 69° N 23:36:58 10° N
Okean 1 4.0 23:28:37 10° NNW 23:31:46 50° NW 23:31:46 50° NW
Cosmos 494 Rocket 4.1 23:33:17 60° WSW 23:33:50 65° WNW 23:38:57 10° NNE
Cosmos 1666 Rocket 3.9 23:37:07 62° NW 23:37:07 62° NW 23:41:13 10° N
Cosmos 2219 Rocket 3.0 23:39:36 10° NW 23:44:40 36° WSW 23:44:40 36° WSW
SL-08 R/B 4.4 23:45:17 60° SSW 23:46:26 78° W 23:52:38 10° N
Meteor 1-19 Rocket 4.4 23:43:40 10° NNW 23:49:09 54° W 23:49:32 53° WSW
SL-16 R/B 3.6 23:44:44 10° N 23:49:46 31° NE 23:52:42 20° E
Cosmos 1269 Rocket 4.0 23:50:05 65° E 23:50:05 65° E 23:55:14 10° NNE
PSLV R/B 4.2 23:47:53 10° NNE 23:52:12 52° E 23:52:12 52° E
Resurs 1-4 Rocket 4.4 23:52:45 10° ENE 23:54:14 11° E 23:55:13 11° E
